User: anonymous   Login
Location: Antichan
(42.9728°N, 0.6667°E)
Time: 10:37:52
(UTC+00:00)
Language:

Cosmos 1536 - Orbit

View from above orbital plane
View from above orbital plane
View from above satellite
View from above satellite

Ground track
Ground track

The orbit data is extracted from the following two-line orbital elements,

1 14699U 84013A   20299.88790372 +.00000018 +00000-0 -77579-6 0  9992
2 14699 082.5287 221.3077 0012622 182.9367 177.1788 15.05654274976486
Epoch (UTC): 25 October 2020 21:18:34
Eccentricity: 0.0012622
inclination: 82.5287°
perigee height: 541 km
apogee height: 558 km
right ascension of ascending node: 221.3077°
argument of perigee: 182.9367°
revolutions per day: 15.05654274
mean anomaly at epoch: 177.1788°
orbit number at epoch: 97648

The dashed part of the orbit path shows where the satellite is in the earth's shadow,  

DLR